Miscellaneous Local Product
Issued by NWS Hastings, NE

Home | Current Version | Previous Version | Graphics & Text | Print | Product List | Glossary On
Versions: 1 2 3 4 5 6 7 8 9 10 11 12 13 14 15 16 17 18 19 20 21 22 23 24 25 26 27 28 29 30 31 32 33 34 35 36 37 38 39 40 41 42 43 44 45 46 47 48 49 50
156
AXUS43 KGID 210802
MISGRI

GID CWA HOURLY WEATHER ROUNDUP
NATIONAL WEATHER SERVICE HASTINGS NE
200 AM CST SUN JAN 21 2018

NOTE: "FAIR" INDICATES FEW OR NO CLOUDS BELOW 12,000 FEET WITH NO
SIGNIFICANT WEATHER AND/OR OBSTRUCTIONS TO VISIBILITY.

...SOUTH CENTRAL NEBRASKA...

CITY           SKY/WX    TMP DP  RH WIND       PRES   REMARKS
GRAND ISLAND   CLOUDY    34  31  88 N9        29.82F WCI  27
KEARNEY        CLOUDY    34  30  85 N15       29.80F WCI  24
HASTINGS       CLOUDY    35  30  82 NE12      29.79F WCI  27
ORD            MOCLDY    32  29  88 N13       29.83F WCI  22
YORK           PTCLDY    37  34  87 NE9       29.82S WCI  31
AURORA         CLOUDY    35  31  86 N9        29.81F WCI  28
LEXINGTON      MOCLDY    32  29  86 NE10      29.81F WCI  24
HOLDREGE       CLOUDY    34  32  92 N14       29.78F WCI  24
HEBRON         CLOUDY    39  38  98 NE9       29.78F FOG     WCI  33

...NEBRASKA PANHANDLE...

CITY           SKY/WX    TMP DP  RH WIND       PRES   REMARKS
CHADRON        LGT SNOW  30  29  96 NE14      29.95S FOG     WCI  19
ALLIANCE       LGT SNOW  30  30 100 NE14      29.87F FOG     WCI  19
SCOTTSBLUFF    CLOUDY    31  30  96 NE13      29.87F WCI  21
SIDNEY         CLOUDY    30  27  88 NE13      29.83F WCI  20

...WESTERN AND NORTH CENTRAL NEBRASKA...

CITY           SKY/WX    TMP DP  RH WIND       PRES   REMARKS
VALENTINE      CLOUDY    35  31  85 N14       29.93S WCI  26
AINSWORTH      CLOUDY    34  34 100 N13       29.90F WCI  25
ONEILL         MOCLDY    32  32  99 N9        29.89F WCI  24
BROKEN BOW     MOCLDY    33  29  85 N16G23    29.82F WCI  23
IMPERIAL       CLOUDY    32  29  88 NE15      29.81F WCI  22
NORTH PLATTE   PTCLDY    33  29  85 NE17G25   29.82F WCI  22
MCCOOK         MOCLDY    30  27  88 N14       29.78F WCI  19

...EASTERN NEBRASKA...

CITY           SKY/WX    TMP DP  RH WIND       PRES   REMARKS
NORFOLK        CLOUDY    33  28  81 N3        29.86R
SO SIOUX CITY  CLOUDY    32  29  88 E5        29.89R WCI  27
TEKAMAH        CLOUDY    35  30  82 N8        29.86S WCI  29
COLUMBUS       CLOUDY    36  30  79 NE6       29.84F WCI  31
ALBION         CLOUDY    33  31  89 N14       29.84S WCI  24
OMAHA EPPLEY   CLOUDY    38  35  89 N6        29.85S WCI  33
OFFUTT AFB     CLOUDY    41  38  89 CALM      29.83S
MILLARD        CLOUDY    42  38  86 CALM      29.84S
LINCOLN        CLOUDY    41  37  86 N7        29.84S
NEBRASKA CITY  CLOUDY    38  38 100 N5        29.82S FOG     WCI  34
BEATRICE       SNOW      37  37 100 NE8       29.79S VSB 1/4 WCI  31
FALLS CITY     CLOUDY    38  38 100 E7        29.80S FOG     WCI  33

...NORTHERN KANSAS...

CITY           SKY/WX    TMP DP  RH WIND       PRES   REMARKS
GOODLAND       CLOUDY    31  28  89 N14       29.77R WCI  21
HILL CITY      CLOUDY    36  35  96 N14       29.72F FOG     WCI  27
NORTON         CLOUDY    36  28  75 N15       29.73F WCI  26
PHILLIPSBURG   CLOUDY    37  37 100 N9        29.75R FOG     WCI  31
SMITH CENTER   FOG       37  37 100 NE15G22   29.72F VSB 3/4 WCI  28
BELOIT         FOG       36  36 100 NE9       29.72F VSB 1/4 WCI  29
HAYS           LGT RAIN  35  33  92 NE7       29.69R VSB 1/2 WCI  29
RUSSELL        FOG       34  34 100 NE9       29.67F VSB 1/4 WCI  27
CONCORDIA      FOG       35  35 100 E8        29.73F VSB 1/4 WCI  29
SALINA         CLOUDY    33  32  96 CALM      29.71F FOG
TOPEKA         FOG       33  33 100 E5        29.78F VSB 3/4 WCI  29



USA.gov is the U.S. government's official web portal to all federal, state and local government web resources and services.